Home   Weather   Guangzhou   Past weeks

Flag for China Past Weather in Guangzhou, Guangdong, China — Yesterday and Last 2 Weeks

82 °F


Feels Like: 89 °F
Forecast: 76 / 86 °F
Wind: 3 mph from East

Location: Canton Airport

Current Time: Oct 23, 2016 at 9:29:44 AM

Latest Report: Oct 23, 2016 at 9:00 AM

Visibility: 2 mi

Pressure: 29.86 "Hg

Humidity: 79%

Dew Point: 75 °F

Location of GuangzhouLocation

Past Weather in Guangzhou — Graph


Guangzhou Temperature Yesterday

Maximum temperature yesterday: 88 °F (at 11:30 AM)
Minimum temperature yesterday: 75 °F (at 6:30 AM)
Average temperature yesterday: 82 °F

High & Low Weather Summary for the Past Weeks

High91 °F (Oct 16, 1:30 PM)100% (Oct 19, 4:00 PM)30.04 "Hg (Oct 19, 4:00 PM)
Low70 °F (Oct 12, 9:00 AM)40% (Oct 10, 1:00 PM)29.33 "Hg (Oct 21, 1:30 PM)
Average79 °F69%29.82 "Hg
* Reported Oct 8 8:00 AM — Oct 23 8:00 AM, Guangzhou, Weather by CustomWeather, © 2016

Note: Actual official high and low records may vary slightly from our data, if they occured in-between our weather recording intervals... More about our weather records


Guangzhou Weather History for the Previous 24 Hours

Scroll right to see more
Time TempWeatherWind HumidityBarometerVisibility
8:00 AM
Sun, Oct 23
79 °FFog.3 mph89%29.83 "Hg2 mi
7:30 AM79 °FFog.1 mph89%29.83 "Hg2 mi
7:00 AM77 °FFog.3 mph94%29.83 "Hg2 mi
6:30 AM77 °FFog.3 mph89%29.83 "Hg2 mi
6:00 AM77 °FFog.3 mph89%29.80 "Hg2 mi
5:30 AM77 °FFog.1 mph89%29.80 "Hg2 mi
5:00 AM77 °FFog.3 mph89%29.80 "Hg2 mi
4:30 AM77 °FFog.1 mph94%29.77 "Hg2 mi
4:00 AM77 °FFog.3 mph94%29.77 "Hg2 mi
3:30 AM79 °FFog.3 mph89%29.77 "Hg2 mi
3:00 AM79 °FFog.3 mph89%29.77 "Hg3 mi
2:30 AM79 °FFog.1 mph89%29.77 "Hg3 mi
2:00 AM79 °FFog.1 mph89%29.77 "Hg3 mi
1:30 AM79 °FFog.3 mph89%29.77 "Hg2 mi
1:00 AM79 °FFog.1 mph89%29.80 "Hg2 mi
12:30 AM79 °FFog.1 mph89%29.80 "Hg2 mi
12:00 AM79 °FFog.1 mph89%29.80 "Hg2 mi
11:30 PM
Sat, Oct 22
81 °FFog.3 mph84%29.80 "Hg2 mi
11:00 PM81 °FFog.1 mph84%29.80 "Hg2 mi
10:30 PM81 °FFog.1 mph84%29.80 "Hg2 mi
10:00 PM81 °FFog.1 mph84%29.80 "Hg2 mi
9:30 PM81 °FFog.1 mph84%29.77 "Hg2 mi
9:00 PM81 °FFog.1 mph84%29.77 "Hg2 mi
8:30 PM81 °FFog.1 mph84%29.77 "Hg2 mi
8:00 PM82 °FFog.1 mph79%29.74 "Hg3 mi
7:30 PM82 °FFog.1 mph79%29.74 "Hg3 mi
7:00 PM82 °FFog.1 mph79%29.74 "Hg3 mi
6:30 PM84 °FHaze.1 mph74%29.71 "Hg3 mi
6:00 PM84 °FHaze.3 mph74%29.71 "Hg3 mi
5:30 PM86 °FHaze.No wind66%29.71 "Hg3 mi
5:00 PM86 °FHaze.1 mph62%29.71 "Hg3 mi
4:30 PM86 °FPassing clouds.3 mph66%29.71 "Hg4 mi
4:00 PM88 °FClear.3 mph62%29.71 "Hg5 mi
3:30 PM88 °FClear.3 mph59%29.71 "Hg4 mi
3:00 PM88 °FClear.3 mph59%29.71 "Hg4 mi
2:30 PM86 °FScattered clouds.3 mph66%29.71 "Hg3 mi
2:00 PM86 °FScattered clouds.3 mph66%29.71 "Hg4 mi
1:30 PM86 °FScattered clouds.3 mph66%29.71 "Hg4 mi
1:00 PM86 °FScattered clouds.6 mph66%29.74 "Hg4 mi
12:30 PM86 °FScattered clouds.3 mph66%29.74 "Hg4 mi
12:00 PM86 °FScattered clouds.1 mph66%29.74 "Hg4 mi
11:30 AM88 °FPassing clouds.3 mph59%29.77 "Hg4 mi
11:00 AM86 °FScattered clouds.3 mph66%29.77 "Hg4 mi
10:30 AM86 °FScattered clouds.3 mph66%29.77 "Hg4 mi
10:00 AM86 °FPassing clouds.3 mph70%29.77 "Hg4 mi
9:30 AM82 °FClear.1 mph79%29.77 "Hg4 mi
9:00 AM82 °FClear.1 mph79%29.77 "Hg4 mi
Weather by CustomWeather, © 2016

See weather overviewHow to use our weather pages